ソーホー彗星

C/2023 F2 ( SOHO )

English version
Home page
Updated on May 22, 2023

---------------------------------------------------------------------

・ プロフィール

発見日 2023年3月21日
発見光度 5等
発見者 Hanjie Tan (SOHO C3 coronagraph)

・ 軌道要素

     T = 2023 Mar. 21.1633 TT         Peri. =  57.1588
                                      Node  =  72.1992  2000.0
     q = 0.034253 AU                  Incl. =  71.8551

・ 光度変化

        m1 = 20.0 + 5 logΔ + 10.0 log r

---------------------------------------------------------------------

軌道要素は、CBET 5261に掲載されたものです。
光度グラフはComet for Windowsで作成したものです。

---------------------------------------------------------------------

Copyright(C) Seiichi Yoshida (comet@aerith.net). All rights reserved.